KE9LZ-9 Weather Reports


Display with metric or nautical units.
time (UTC)temp
F
wind
direction
speed
MPH
gust
MPH
rain 1hr
in
rain 24hr
in
rain mn
in
humidity
%
barometer
mb
20260903163003 67 314 1.0 2.0 0.00 0.00 0.00 98 1015.9
20260903162004 67 348 1.0 2.0 0.00 0.00 0.00 97 1015.4
20260903161003 67 336 2.0 2.0 0.00 0.00 0.00 97 1015.5
20260903160004 67 310 0.0 1.0 0.00 0.00 0.00 96 1015.3
20260903155004 67 340 0.0 1.0 0.00 0.00 0.00 96 1015.3
20260903153004 67 348 1.0 1.0 0.00 0.00 0.00 93 1015.6
20260903152003 68 26 1.0 2.0 0.00 0.00 0.00 92 1015.4
20260903151004 68 312 2.0 2.0 0.00 0.00 0.00 92 1015.1
20260903150004 68 14 0.0 2.0 0.00 0.00 0.00 92 1015.1
20260903144004 68 299 1.0 2.0 0.00 0.00 0.00 91 1014.7
20260903143004 68 348 1.0 3.0 0.00 0.00 0.00 91 1014.7
20260903142004 68 53 1.0 2.0 0.00 0.00 0.00 91 1014.5
20260903141004 67 35 1.0 2.0 0.00 0.00 0.00 91 1014.6
20260903140004 67 1 1.0 2.0 0.00 0.00 0.00 92 1014.8
20260903135003 67 349 0.0 2.0 0.00 0.00 0.00 92 1014.9
20260903134004 66 10 1.0 1.0 0.00 0.00 0.00 92 1015.0
20260903133004 66 24 0.0 2.0 0.00 0.00 0.00 92 1014.8
20260903132004 66 3 1.0 2.0 0.00 0.00 0.00 92 1014.9
20260903131004 66 314 1.0 2.0 0.00 0.00 0.00 93 1014.9
20260903130004 65 16 1.0 2.0 0.00 0.00 0.00 93 1014.8
20260903125004 65 6 1.0 2.0 0.00 0.00 0.00 93 1014.9
20260903124004 64 25 1.0 2.0 0.00 0.01 0.00 94 1014.9
20260903123004 64 320 1.0 2.0 0.00 0.01 0.00 94 1015.0
20260903122004 63 14 1.0 2.0 0.00 0.01 0.00 94 1014.8
20260903121003 63 3 1.0 2.0 0.00 0.01 0.00 95 1015.0
20260903114004 62 31 1.0 2.0 0.00 0.02 0.00 96 1015.0
20260903112004 62 17 0.0 2.0 0.00 0.02 0.00 96 1014.9
20260903111004 62 28 1.0 2.0 0.00 0.03 0.00 96 1014.8
20260903110004 62 0 1.0 2.0 0.00 0.06 0.00 96 1014.7
20260903105004 62 11 1.0 2.0 0.00 0.08 0.00 96 1014.7
20260903104005 62 15 1.0 2.0 0.00 0.09 0.00 97 1014.4
20260903102003 62 16 1.0 2.0 0.00 0.12 0.00 98 1014.6
20260903101003 62 29 1.0 2.0 0.00 0.15 0.00 99 1015.0
20260903100004 61 357 1.0 1.0 0.00 0.15 0.00 99 1014.8
20260903095004 61 16 1.0 1.0 0.00 0.15 0.00 99 1014.9
20260903094004 61 8 1.0 2.0 0.00 0.15 0.00 99 1014.5
20260903092004 61 27 1.0 1.0 0.00 0.15 0.00 99 1014.3
20260903091004 62 18 1.0 2.0 0.00 0.15 0.00 99 1014.4
20260903090004 61 14 1.0 1.0 0.00 0.15 0.00 99 1014.4
20260903085004 61 19 1.0 1.0 0.00 0.15 0.00 99 1014.2
20260903084004 61 5 1.0 2.0 0.00 0.15 0.00 99 1014.5
20260903083004 61 15 1.0 1.0 0.00 0.15 0.00 99 1014.5
20260903081004 62 36 1.0 2.0 0.00 0.15 0.00 99 1014.4
20260903080004 62 18 1.0 2.0 0.00 0.15 0.00 99 1014.4
20260903075004 62 346 0.0 1.0 0.00 0.15 0.00 99 1014.4
20260903074004 62 14 1.0 2.0 0.00 0.15 0.00 99 1014.4
20260903072004 62 345 0.0 1.0 0.00 0.15 0.00 99 1014.6
20260903071004 63 2 1.0 1.0 0.00 0.15 0.00 99 1014.5
20260903070004 63 22 0.0 2.0 0.00 0.15 0.00 99 1014.6
20260903065004 63 343 0.0 2.0 0.00 0.15 0.00 99 1014.7
20260903064004 63 41 0.0 2.0 0.00 0.15 0.00 99 1014.6
20260903063004 63 43 1.0 1.0 0.00 0.15 0.00 99 1014.7
20260903062004 63 47 0.0 1.0 0.00 0.15 0.00 99 1014.5
20260903061003 63 51 0.0 1.0 0.00 0.15 0.00 99 1014.5
20260903060004 63 31 1.0 2.0 0.00 0.15 0.00 99 1014.5
20260903055004 64 22 0.0 1.0 0.00 0.15 0.00 99 1014.5
20260903054004 64 24 0.0 1.0 0.00 0.15 0.00 99 1014.4
20260903053004 64 41 0.0 2.0 0.00 0.15 0.00 99 1014.3
20260903052004 64 35 0.0 2.0 0.00 0.15 0.00 99 1014.2
20260903051004 65 31 1.0 1.0 0.00 0.15 0.00 99 1014.3
20260903050003 65 34 0.0 1.0 0.00 0.15 0.00 99 1014.3
20260903045004 65 47 1.0 2.0 0.00 0.15 0.15 99 1014.2
20260903044004 65 23 1.0 2.0 0.00 0.15 0.15 99 1014.0
20260903043004 65 55 1.0 2.0 0.00 0.15 0.15 99 1014.0
20260903042004 65 19 1.0 2.0 0.00 0.15 0.15 99 1014.0
20260903041003 65 31 1.0 2.0 0.00 0.15 0.15 99 1014.0
20260903040004 66 3 0.0 2.0 0.00 0.15 0.15 99 1014.0
20260903035003 66 42 0.0 3.0 0.00 0.15 0.15 99 1013.9
20260903034004 66 4 1.0 2.0 0.00 0.15 0.15 99 1013.7
20260903032004 66 1 0.0 1.0 0.00 0.15 0.15 99 1013.6
20260903031004 66 5 0.0 1.0 0.00 0.15 0.15 99 1013.4
20260903030004 67 11 0.0 1.0 0.00 0.15 0.15 98 1013.5
20260903025004 67 322 0.0 1.0 0.00 0.15 0.15 98 1013.6
20260903024004 67 341 0.0 1.0 0.00 0.15 0.15 98 1013.5
20260903023004 67 1 0.0 1.0 0.00 0.15 0.15 98 1013.6
20260903022004 67 42 0.0 1.0 0.00 0.15 0.15 97 1013.4
20260903021004 67 47 0.0 1.0 0.00 0.15 0.15 97 1013.3
20260903015004 68 17 0.0 1.0 0.00 0.15 0.15 95 1013.0
20260903014003 68 345 0.0 0.0 0.00 0.15 0.15 95 1012.8
20260903013004 68 4 0.0 0.0 0.00 0.15 0.15 94 1013.0
20260903012004 69 15 0.0 1.0 0.00 0.15 0.15 93 1012.8
20260903011004 69 327 0.0 1.0 0.00 0.15 0.15 92 1012.7
20260903005004 71 0 0.0 1.0 0.00 0.15 0.15 91 1012.5
20260903004004 71 322 0.0 1.0 0.00 0.15 0.15 90 1012.5
20260903003004 72 339 0.0 1.0 0.00 0.15 0.15 89 1012.6
20260903002004 73 322 0.0 0.0 0.00 0.15 0.15 88 1012.6
20260903000004 76 356 0.0 1.0 0.00 0.15 0.15 84 1012.5
20260902235004 77 353 0.0 1.0 0.00 0.15 0.15 81 1012.5
20260902234003 78 33 0.0 1.0 0.00 0.15 0.15 76 1012.5
20260902233004 80 344 0.0 1.0 0.00 0.15 0.15 72 1012.5
20260902232004 81 299 0.0 2.0 0.00 0.15 0.15 69 1012.5
20260902231004 81 343 1.0 3.0 0.00 0.15 0.15 67 1012.7
20260902230004 82 322 1.0 3.0 0.00 0.15 0.15 67 1012.7
20260902225004 82 280 1.0 5.0 0.00 0.15 0.15 65 1012.7
20260902224003 83 296 2.0 3.0 0.00 0.15 0.15 63 1012.6
20260902223003 84 89 1.0 3.0 0.00 0.15 0.15 61 1012.8
20260902222004 83 263 2.0 5.0 0.00 0.15 0.15 61 1012.6
20260902220004 83 87 1.0 5.0 0.00 0.15 0.15 60 1012.6
20260902215003 84 280 1.0 3.0 0.00 0.15 0.15 59 1012.8
20260902214004 83 271 2.0 6.0 0.00 0.15 0.15 59 1012.8
20260902213004 84 294 1.0 6.0 0.00 0.15 0.15 59 1012.8
20260902211004 83 191 1.0 3.0 0.00 0.15 0.15 59 1012.8
20260902210004 84 301 3.0 6.0 0.00 0.15 0.15 59 1012.8
20260902205003 83 302 2.0 6.0 0.00 0.15 0.15 61 1012.9
20260902204004 82 296 3.0 5.0 0.00 0.15 0.15 62 1012.9
20260902203004 82 256 3.0 7.0 0.00 0.15 0.15 60 1013.2
20260902201004 83 327 2.0 3.0 0.00 0.15 0.15 58 1013.3
20260902200003 82 308 2.0 5.0 0.00 0.15 0.15 61 1013.1
20260902195004 82 313 1.0 3.0 0.00 0.15 0.15 63 1013.0
20260902194004 80 303 3.0 7.0 0.00 0.15 0.15 62 1013.3
20260902191004 80 263 2.0 6.0 0.00 0.15 0.15 61 1013.6
20260902190004 80 267 3.0 7.0 0.00 0.15 0.15 63 1013.5
20260902185004 80 336 2.0 6.0 0.00 0.15 0.15 62 1013.6
20260902184004 79 355 2.0 8.0 0.00 0.15 0.15 67 1013.7
20260902183004 79 307 2.0 7.0 0.00 0.15 0.15 63 1013.9
20260902182004 79 291 2.0 8.0 0.00 0.15 0.15 66 1013.8
20260902181004 78 287 2.0 7.0 0.00 0.15 0.15 70 1013.6
20260902180006 78 306 3.0 8.0 0.00 0.15 0.15 71 1013.8
20260902175004 76 303 4.0 7.0 0.00 0.15 0.15 76 1014.0
20260902174004 76 280 4.0 7.0 0.00 0.15 0.15 76 1014.2
20260902171003 75 285 2.0 7.0 0.00 0.15 0.15 79 1014.1
20260902170003 75 229 2.0 6.0 0.00 0.15 0.15 80 1014.2
20260902165004 75 5 2.0 5.0 0.00 0.15 0.15 80 1014.3